Location: Newark
(34.6283°N, 36.0776°E)
Time: 17:03:57
(UTC+00:00)

Vanguard 3 - All Passes

Search period start: 22 September 2019 00:00
Search period end: 02 October 2019 00:00
Orbit: 508 x 3263 km, 33.4° (Epoch: 21 September)

Date Brightness Start Highest point End Pass type
(mag) Time Alt. Az. Time Alt. Az. Time Alt. Az.
22 Sep - 02:13:09 10° S 02:21:35 24° SE 02:33:23 10° E visible
22 Sep - 04:21:25 10° SW 04:34:20 61° SSE 04:53:25 10° ENE daylight
22 Sep - 06:33:57 10° WSW 06:50:42 85° S 07:10:51 10° E daylight
22 Sep - 08:49:01 10° W 09:08:36 80° SSW 09:26:20 10° ESE daylight
22 Sep - 11:06:02 10° WNW 11:24:41 51° SW 11:38:33 10° SE daylight
22 Sep - 13:27:54 10° W 13:37:18 17° SW 13:44:53 10° SSW daylight
23 Sep - 01:06:41 10° SE 01:07:51 10° ESE 01:09:04 10° ESE visible
23 Sep - 03:08:21 10° SSW 03:18:56 44° SE 03:35:17 10° ENE daylight
23 Sep - 05:19:08 10° WSW 05:33:32 78° SSE 05:53:41 10° E daylight
23 Sep - 07:32:55 10° W 07:51:00 86° S 08:10:30 10° E daylight
23 Sep - 09:48:43 10° WNW 10:08:19 66° SSW 10:24:37 10° SE daylight
23 Sep - 12:07:15 10° W 12:22:43 32° SW 12:34:26 10° S daylight
24 Sep - 01:56:31 10° S 02:04:34 26° SE 02:16:18 10° E visible
24 Sep - 04:05:09 10° SW 04:17:11 65° SSE 04:35:59 10° ENE daylight
24 Sep - 06:17:33 10° W 06:33:26 86° S 06:53:47 10° E daylight
24 Sep - 08:32:11 10° W 08:51:11 78° SSW 09:09:37 10° ESE daylight
24 Sep - 10:48:52 10° WNW 11:07:14 47° SW 11:21:49 10° SSE daylight
24 Sep - 13:11:42 10° W 13:20:04 15° SW 13:27:12 10° SSW daylight
25 Sep - 00:47:58 10° SE 00:50:58 12° SE 00:54:22 10° ESE visible
25 Sep - 02:52:04 10° SW 03:01:55 47° SE 03:17:51 10° ENE visible
25 Sep - 05:02:54 10° WSW 05:16:23 80° SSE 05:36:22 10° E daylight
25 Sep - 07:16:23 10° W 07:33:39 85° S 07:53:35 10° ESE daylight
25 Sep - 09:31:44 10° WNW 09:50:50 62° SSW 10:07:51 10° SE daylight
25 Sep - 11:50:18 10° W 12:05:18 29° SW 12:17:23 10° S daylight
26 Sep - 01:40:04 10° S 01:47:39 29° SE 01:59:09 10° E visible
26 Sep - 03:49:01 10° WSW 04:00:12 68° SSE 04:18:31 10° E daylight
26 Sep - 06:01:15 10° W 06:16:15 86° S 06:36:37 10° E daylight
26 Sep - 08:15:28 10° W 08:33:44 74° SSW 08:52:44 10° ESE daylight
26 Sep - 10:31:51 10° W 10:49:43 43° SW 11:04:53 10° SSE daylight
26 Sep - 12:56:05 10° WSW 13:02:48 13° SW 13:08:50 10° SSW daylight
27 Sep - 00:30:35 10° SSE 00:34:11 13° SE 00:38:29 10° ESE visible
27 Sep - 02:35:55 10° SW 02:45:02 50° SSE 03:00:24 10° ENE visible
27 Sep - 04:46:48 10° WSW 04:59:22 82° S 05:18:59 10° E daylight
27 Sep - 06:59:56 10° W 07:16:20 83° S 07:36:31 10° ESE daylight
27 Sep - 09:14:52 10° WNW 09:33:18 58° SSW 09:50:54 10° SE daylight
27 Sep - 11:33:33 10° W 11:47:51 26° SW 12:00:03 10° S daylight
28 Sep - 01:23:47 10° SSW 01:30:52 31° SE 01:41:59 10° E visible
28 Sep - 03:32:59 10° WSW 03:43:21 71° SSE 04:01:01 10° E daylight
28 Sep - 05:45:03 10° W 05:59:07 86° S 06:19:21 10° E daylight
28 Sep - 07:58:52 10° W 08:16:17 71° SSW 08:35:41 10° ESE daylight
28 Sep - 10:15:01 10° W 10:32:11 40° SW 10:47:43 10° SSE daylight
28 Sep - 12:42:00 10° WSW 12:45:31 11° SW 12:48:54 10° SW daylight
29 Sep - 00:13:41 10° SSE 00:17:29 14° SE 00:22:16 10° E visible
29 Sep - 02:19:53 10° SW 02:28:17 53° SSE 02:42:56 10° E visible
29 Sep - 04:30:46 10° WSW 04:42:28 84° S 05:01:33 10° E daylight
29 Sep - 06:43:36 10° W 06:59:04 80° SSW 07:19:19 10° ESE daylight
29 Sep - 08:58:09 10° W 09:15:45 54° SSW 09:33:45 10° SE daylight
29 Sep - 11:17:06 10° W 11:30:24 23° SW 11:42:22 10° S daylight
30 Sep - 01:07:39 10° SSW 01:14:12 33° SE 01:24:49 10° E visible
30 Sep - 03:17:03 10° WSW 03:26:37 74° SSE 03:43:29 10° E daylight
30 Sep - 05:28:56 10° W 05:42:05 85° S 06:02:00 10° E daylight
30 Sep - 07:42:22 10° W 07:58:51 67° SSW 08:18:27 10° SE daylight
30 Sep - 09:58:22 10° W 10:14:37 36° SW 10:30:18 10° SSE daylight
30 Sep - 23:57:03 10° SSE 00:00:54 15° SE 00:05:53 10° E visible
01 Oct - 02:03:57 10° SW 02:11:41 57° SSE 02:25:31 10° E visible
01 Oct - 04:14:50 10° W 04:25:40 85° S 04:44:05 10° E daylight
01 Oct - 06:27:21 10° W 06:41:51 77° SSW 07:01:59 10° ESE daylight
01 Oct - 08:41:35 10° W 08:58:14 49° SSW 09:16:22 10° SE daylight
01 Oct - 11:01:00 10° W 11:12:58 20° SW 11:24:16 10° S daylight
